Location: Bradford+West+Gwillimbury,+ON,+Canadà
(44.1162°N, 79.5735°W)
Time: 17:10:04
(UTC-04:00)

STARLINK-2756 - Pass Details

Date: 22 June 2021
Orbit: 348 x 351 km, 53.0° (Epoch: 05 August)

Event Time Altitude Azimuth Distance (km) Brightness Sun altitude
Rises 13:53:35 0° 272° (W) 2,215 6.8 68.2°
Enters shadow 14:27:15 -57° 138° (SE) 11,040 9.8 65.2°
Exits shadow 15:03:31 -50° 339° (NNW) 10,280 9.6 60.4°
Maximum altitude 04:52:37 25° 135° (SE) 802 4.5 -6.8°
